Hourly Data Report for September 27, 2016

All times are specified in Local Standard Time (LST). Add 1 hour to adjust for Daylight Saving Time where and when it is observed.

CORAL HARBOUR A
NUNAVUT

64°11'36.000" N
83°21'34.000" W
62.20 m
2301002
71915
YZS

Download Data

Hourly Data (September 2016)
Hourly Data Report for September 27, 2016
Temp Definition
°C
Dew Point Temp Definition
°C
Rel Hum Definition
%
Wind Dir Definition
10's deg

Wind Spd Definition
km/h
Visibility Definition
km
Stn Press Definition
kPa
Hmdx Definition


Wind Chill Definition


Weather Definition


TIME
00:00 Legend Double Dagger 2.0 1.9 99 16 9 0.4 100.61     Fog
01:00 Legend Double Dagger 2.0 1.9 99 13 13 0.4 100.63     Fog
02:00 Legend Double Dagger 2.8 2.7 99 17 16 0.4 100.64     Fog
03:00 Legend Double Dagger 2.8 2.7 99 17 9 0.4 100.65     Fog
04:00 Legend Double Dagger 2.8 2.7 99 17 9 0.4 100.67     Fog
05:00 Legend Double Dagger 3.0 2.9 99 23 11 0.4 100.73     Fog
06:00 Legend Double Dagger 2.9 2.8 99 17 7 1.2 100.71     Drizzle,Fog
07:00 Legend Double Dagger 2.9 2.8 99 17 4 0.2 100.76     Drizzle,Fog
08:00 Legend Double Dagger 3.0 2.9 99 25 5 0.4 100.81     Drizzle,Fog
09:00 Legend Double Dagger 3.3 3.2 99 36 3 0.2 100.83     Drizzle,Fog
10:00 Legend Double Dagger 3.7 3.6 99 14 4 0.2 100.86     Drizzle,Fog
11:00 Legend Double Dagger 4.0 3.9 99 28 4 0.2 100.92     Drizzle,Fog
12:00 Legend Double Dagger 4.5 4.4 99 36 2 12.9 100.88     LegendNANA
13:00 Legend Double Dagger 5.2 4.6 96 1 5 19.3 100.91     Cloudy
14:00 Legend Double Dagger 5.3 4.3 93 2 4 24.1 100.95     LegendNANA
15:00 Legend Double Dagger 5.6 4.3 91 36 1 24.1 100.96     LegendNANA
16:00 Legend Double Dagger 5.2 4.6 96 15 8 24.1 101.02     Cloudy
17:00 Legend Double Dagger 5.2 4.8 97 17 5 24.1 101.08     LegendNANA
18:00 Legend Double Dagger 5.0 4.6 97 36 3 24.1 101.12     LegendNANA
19:00 Legend Double Dagger 4.7 4.4 98 0 1 24.1 101.14     Cloudy
20:00 Legend Double Dagger 4.6 4.3 98 8 8 19.3 101.13     LegendNANA
21:00 Legend Double Dagger 4.0 3.9 99 11 14 0.8 101.14     Drizzle,Fog
22:00 Legend Double Dagger 3.6 3.5 99 11 14 1.6 101.12     Drizzle,Fog
23:00 Legend Double Dagger 3.3 3.2 99 12 15 1.6 101.14     Drizzle,Fog

Notes on Data Quality.

Legend

  • E = Estimated
  • M = Missing
  • NA = Not Available
  • ‡ = Partner data that is not subject to review by the National Climate Archives
Date modified: